Clinton, AR

3:15 PM CST on February 20, 2017 (GMT -0600)
Clinton

Weather History for KCCA - May, 2013

Change the Weather History Date:

Wednesday, May 22, 2013

  Actual Average (KBVX) Record (KBVX)
Temperature  
Mean Temperature 70 °F -  
Max Temperature 80 °F 81 °F 92 °F (1970)
Min Temperature 60 °F 58 °F 44 °F (1967)
Cooling Degree Days 5    
Growing Degree Days 20 (Base 50)    
Moisture  
Dew Point 61 °F    
Average Humidity 80    
Maximum Humidity 100    
Minimum Humidity 51    
Precipitation  
Precipitation 0.00 in - - ()
Sea Level Pressure  
Sea Level Pressure 29.87 in    
Wind  
Wind Speed 3 mph (SW)    
Max Wind Speed 14 mph    
Max Gust Speed 20 mph    
Visibility 8 miles    
Events      
Averages and records for this station are not official NWS values.
T = Trace of Precipitation, MM = Missing Value Source: NWS Daily Summary

Daily Weather History Graph

Daily Weather History Graph

Search for Another Location

Airport or City:

Trip Planner

Search our weather history database for the weather conditions in past years. The results will help you decide how hot, cold, wet, or windy it might be!

Date:

Astronomy

May. 22, 2013 Rise Set
Actual Time 5:59 AM CDT 8:13 PM CDT
Civil Twilight 5:31 AM CDT 8:42 PM CDT
Nautical Twilight 4:55 AM CDT 9:17 PM CDT
Astronomical Twilight 4:17 AM CDT 9:56 PM CDT
Moon 5:40 PM CDT (5/22) 3:58 AM CDT (5/22)
Length of Visible Light 15h 11m
Length of Day
14h 13m
Waxing Gibbous, 91% of the Moon is Illuminated
May 22
Waxing Gibbous
May 24
Full
May 31
Last Quarter
Jun 8
New
Jun 16
First Quarter

Hourly Weather History & Observations

Time (CDT) Temp. Heat Index Dew Point Humidity Pressure Visibility Wind Dir Wind Speed Gust Speed Precip Events Conditions
12:15 AM 62.6 °F - 60.8 °F 94% 29.82 in 9.0 mi NW 4.6 mph - N/A   Partly Cloudy
12:35 AM 62.6 °F - 60.8 °F 94% 29.83 in 10.0 mi WNW 4.6 mph - N/A   Clear
12:55 AM 62.6 °F - 60.8 °F 94% 29.83 in 10.0 mi Calm Calm - N/A   Partly Cloudy
1:15 AM 62.6 °F - 60.8 °F 94% 29.83 in 10.0 mi Calm Calm - N/A   Mostly Cloudy
1:35 AM 62.6 °F - 60.8 °F 94% 29.82 in 10.0 mi NNW 3.5 mph - N/A   Overcast
1:55 AM 62.6 °F - 60.8 °F 94% 29.83 in 8.0 mi Calm Calm - N/A   Heavy Drizzle
2:15 AM 62.6 °F - 60.8 °F 94% 29.82 in 7.0 mi Calm Calm - N/A   Mostly Cloudy
2:35 AM 62.6 °F - 60.8 °F 94% 29.82 in 7.0 mi Calm Calm - N/A   Scattered Clouds
2:55 AM 62.6 °F - 60.8 °F 94% 29.82 in 7.0 mi Calm Calm - N/A   Mostly Cloudy
3:15 AM 62.6 °F - 60.8 °F 94% 29.82 in 6.0 mi Calm Calm - N/A   Mostly Cloudy
3:35 AM 62.6 °F - 60.8 °F 94% 29.83 in 6.0 mi Calm Calm - N/A   Mostly Cloudy
3:55 AM 60.8 °F - 60.8 °F 100% 29.82 in 7.0 mi Calm Calm - N/A   Scattered Clouds
4:15 AM 60.8 °F - 60.8 °F 100% 29.83 in 8.0 mi West 4.6 mph - N/A   Clear
4:35 AM 60.8 °F - 60.8 °F 100% 29.83 in 8.0 mi Calm Calm - N/A   Scattered Clouds
4:55 AM 60.8 °F - 60.8 °F 100% 29.84 in 7.0 mi Calm Calm - N/A   Overcast
5:15 AM 60.8 °F - 60.8 °F 100% 29.83 in 7.0 mi Calm Calm - N/A   Overcast
5:35 AM 60.8 °F - 60.8 °F 100% 29.84 in 7.0 mi Calm Calm - N/A   Overcast
5:55 AM 60.8 °F - 60.8 °F 100% 29.85 in 7.0 mi Calm Calm - N/A   Overcast
6:15 AM 60.8 °F - 60.8 °F 100% 29.85 in 8.0 mi Calm Calm - N/A   Overcast
6:35 AM 60.8 °F - 60.8 °F 100% 29.86 in 7.0 mi SW 3.5 mph - N/A   Overcast
6:55 AM 60.8 °F - 60.8 °F 100% 29.86 in 7.0 mi Calm Calm - N/A   Overcast
7:15 AM 62.6 °F - 60.8 °F 94% 29.87 in 7.0 mi Calm Calm - N/A   Overcast
7:35 AM 62.6 °F - 60.8 °F 94% 29.87 in 7.0 mi Calm Calm - N/A   Overcast
7:55 AM 62.6 °F - 60.8 °F 94% 29.87 in 8.0 mi Calm Calm - N/A   Overcast
8:15 AM 64.4 °F - 60.8 °F 88% 29.87 in 8.0 mi South 4.6 mph - N/A   Mostly Cloudy
8:35 AM 64.4 °F - 59.0 °F 83% 29.87 in 8.0 mi SW 6.9 mph - N/A   Mostly Cloudy
8:55 AM 64.4 °F - 59.0 °F 83% 29.88 in 9.0 mi WSW 4.6 mph - N/A   Scattered Clouds
9:15 AM 66.2 °F - 60.8 °F 83% 29.88 in 8.0 mi South 4.6 mph - N/A   Scattered Clouds
9:35 AM 66.2 °F - 60.8 °F 83% 29.88 in 8.0 mi SW 5.8 mph - N/A   Partly Cloudy
9:55 AM 68.0 °F - 60.8 °F 78% 29.89 in 8.0 mi WSW 3.5 mph - N/A   Partly Cloudy
10:15 AM 69.8 °F - 60.8 °F 73% 29.89 in 8.0 mi SW 4.6 mph - N/A   Clear
10:35 AM 69.8 °F - 60.8 °F 73% 29.89 in 8.0 mi SW 3.5 mph - N/A   Clear
10:55 AM 69.8 °F - 62.6 °F 78% 29.89 in 8.0 mi SE 4.6 mph - N/A   Partly Cloudy
11:15 AM 71.6 °F - 62.6 °F 73% 29.90 in 9.0 mi SW 4.6 mph - N/A   Partly Cloudy
11:35 AM 71.6 °F - 62.6 °F 73% 29.89 in 8.0 mi SSW 5.8 mph - N/A   Mostly Cloudy
11:55 AM 71.6 °F - 62.6 °F 73% 29.89 in 8.0 mi SW 5.8 mph - N/A   Scattered Clouds
12:15 PM 73.4 °F - 62.6 °F 69% 29.89 in 8.0 mi South 5.8 mph - N/A   Partly Cloudy
12:35 PM 73.4 °F - 62.6 °F 69% 29.89 in 8.0 mi SSW 6.9 mph - N/A   Partly Cloudy
12:55 PM 73.4 °F - 62.6 °F 69% 29.89 in 8.0 mi SSW 6.9 mph - N/A   Clear
1:15 PM 75.2 °F - 62.6 °F 65% 29.88 in 8.0 mi WSW 6.9 mph - N/A   Clear
1:35 PM 75.2 °F - 62.6 °F 65% 29.88 in 8.0 mi SW 10.4 mph - N/A   Clear
1:55 PM 77.0 °F - 60.8 °F 57% 29.88 in 8.0 mi SSW 6.9 mph - N/A   Clear
2:15 PM 77.0 °F - 60.8 °F 57% 29.87 in 7.0 mi SW 8.1 mph - N/A   Clear
2:35 PM 77.0 °F - 60.8 °F 57% 29.87 in 7.0 mi SSW 9.2 mph 16.1 mph N/A   Clear
2:55 PM 78.8 °F - 60.8 °F 54% 29.87 in 8.0 mi WSW 8.1 mph - N/A   Clear
3:15 PM 78.8 °F - 62.6 °F 57% 29.86 in 8.0 mi SSW 8.1 mph 19.6 mph N/A   Clear
3:35 PM 78.8 °F - 60.8 °F 54% 29.86 in 8.0 mi SW 8.1 mph 16.1 mph N/A   Clear
3:55 PM 78.8 °F - 62.6 °F 57% 29.85 in 8.0 mi SSW 13.8 mph 18.4 mph N/A   Clear
4:15 PM 80.6 °F 81.5 °F 60.8 °F 51% 29.85 in 9.0 mi SW 11.5 mph 16.1 mph N/A   Clear
4:35 PM 78.8 °F - 59.0 °F 51% 29.85 in 8.0 mi SSW 13.8 mph 19.6 mph N/A   Clear
4:55 PM 78.8 °F - 59.0 °F 51% 29.85 in 8.0 mi SW 11.5 mph 18.4 mph N/A   Clear
5:15 PM 78.8 °F - 60.8 °F 54% 29.85 in 8.0 mi SW 8.1 mph 16.1 mph N/A   Clear
5:35 PM 78.8 °F - 59.0 °F 51% 29.85 in 9.0 mi WSW 10.4 mph 16.1 mph N/A   Clear
5:55 PM 78.8 °F - 60.8 °F 54% 29.85 in 8.0 mi SW 11.5 mph 16.1 mph N/A   Clear
6:15 PM 78.8 °F - 60.8 °F 54% 29.85 in 9.0 mi WSW 12.7 mph 16.1 mph N/A   Clear
6:35 PM 78.8 °F - 60.8 °F 54% 29.85 in 8.0 mi WSW 6.9 mph - N/A   Clear
6:55 PM 78.8 °F - 62.6 °F 57% 29.85 in 9.0 mi WSW 5.8 mph - N/A   Clear
7:15 PM 78.8 °F - 62.6 °F 57% 29.86 in 8.0 mi SW 4.6 mph - N/A   Clear
7:35 PM 75.2 °F - 62.6 °F 65% 29.86 in 9.0 mi SW 4.6 mph - N/A   Clear
7:55 PM 75.2 °F - 62.6 °F 65% 29.86 in 9.0 mi SSW 3.5 mph - N/A   Clear
8:15 PM 71.6 °F - 66.2 °F 83% 29.87 in 10.0 mi NNE 3.5 mph - N/A   Clear
8:35 PM 69.8 °F - 64.4 °F 83% 29.88 in 10.0 mi Calm Calm - N/A   Clear
8:55 PM 68.0 °F - 64.4 °F 88% 29.89 in 9.0 mi Calm Calm - N/A   Clear
9:15 PM 66.2 °F - 64.4 °F 94% 29.90 in 10.0 mi Calm Calm - N/A   Clear
9:35 PM 64.4 °F - 64.4 °F 100% 29.91 in 10.0 mi Calm Calm - N/A   Clear
9:55 PM 64.4 °F - 62.6 °F 94% 29.92 in 10.0 mi Calm Calm - N/A   Clear
10:15 PM 64.4 °F - 62.6 °F 94% 29.93 in 9.0 mi Calm Calm - N/A   Clear
10:35 PM 62.6 °F - 62.6 °F 100% 29.93 in 8.0 mi Calm Calm - N/A   Clear
10:55 PM 62.6 °F - 62.6 °F 100% 29.94 in 8.0 mi Calm Calm - N/A   Clear
11:15 PM 62.6 °F - 62.6 °F 100% 29.94 in 8.0 mi Calm Calm - N/A   Clear
11:35 PM 62.6 °F - 60.8 °F 94% 29.94 in 8.0 mi Calm Calm - N/A   Clear
11:55 PM 62.6 °F - 60.8 °F 94% 29.95 in 8.0 mi Calm Calm - N/A   Partly Cloudy